Home > Weather > Sandnes > Past weeks

Flag for Norway Past Weather in Sandnes, Norway — Yesterday and Last 2 Weeks

Now
57 °F

Partly sunny.


Feels Like: 57 °F
Forecast: 62 / 74 °F
Wind: 3 mph from Northeast

Location: Stavanger / Sola

Current Time: May 30, 2016 at 9:04:29 AM

Latest Report: May 30, 2016 at 7:50 AM


Visibility: N/A

Pressure: 30.07 "Hg

Humidity: 82%

Dew Point: 52 °F

Location of SandnesLocation

Past Weather in Sandnes — Graph

°F

Sandnes Temperature Yesterday

Maximum temperature yesterday: 68 °F (at 3:20 PM)
Minimum temperature yesterday: 50 °F (at 2:50 AM)
Average temperature yesterday: 61 °F

High & Low Weather Summary for the Past Weeks

 TemperatureHumidityPressure
High68 °F (May 25, 3:20 PM)100% (May 19, 12:50 AM)30.18 "Hg (May 19, 12:50 AM)
Low43 °F (May 16, 2:50 AM)37% (May 25, 2:50 PM)29.62 "Hg (May 20, 9:50 AM)
Average53 °F79%29.92 "Hg
* Reported May 15 7:20 AM — May 30 7:50 AM, Sandnes, Weather by CustomWeather, © 2016

Note: Actual official high and low records may vary slightly from our data, if they occured in-between our weather recording intervals... More about our weather records

Advertising

Sandnes Weather History for the Previous 24 Hours

Scroll right to see more
 ConditionsComfort  
Time TempWeatherWind HumidityBarometerVisibility
7:50 AM
Mon, May 30
57 °FPartly sunny.3 mph82%30.07 "HgN/A
6:50 AM57 °FPartly sunny.2 mph77%30.07 "HgN/A
6:20 AM54 °FSunny.No wind82%30.07 "Hg10 mi
5:50 AM54 °FSunny.No wind82%30.07 "Hg10 mi
4:50 AM52 °FClear.1 mph88%30.07 "Hg10 mi
3:50 AM54 °FClear.No wind82%30.07 "Hg10 mi
2:50 AM55 °FClear.No wind82%30.07 "Hg10 mi
1:50 AM55 °FClear.No wind82%30.09 "Hg10 mi
12:50 AM57 °FClear.No wind72%30.09 "Hg10 mi
12:20 AM59 °FClear.5 mph68%30.09 "Hg10 mi
11:50 PM
Sun, May 29
61 °FClear.3 mph63%30.09 "Hg10 mi
11:20 PM61 °FSunny.5 mph63%30.09 "Hg10 mi
10:50 PM63 °FSunny.7 mph64%30.07 "Hg10 mi
10:20 PM64 °FSunny.7 mph60%30.07 "Hg10 mi
9:50 PM63 °FSunny.6 mph68%30.07 "Hg10 mi
9:20 PM64 °FSunny.8 mph68%30.07 "Hg10 mi
8:50 PM64 °FScattered clouds.7 mph64%30.07 "HgN/A
8:20 PM66 °FScattered clouds.3 mph64%30.07 "HgN/A
7:50 PM66 °FScattered clouds.3 mph64%30.07 "HgN/A
7:20 PM66 °FScattered clouds.3 mph60%30.07 "HgN/A
6:50 PM64 °FScattered clouds.6 mph64%30.07 "HgN/A
6:20 PM64 °FBroken clouds.6 mph60%30.07 "HgN/A
5:50 PM64 °FDrizzle. Broken clouds.6 mph64%30.07 "HgN/A
5:20 PM64 °FSprinkles. Broken clouds.8 mph60%30.07 "HgN/A
4:50 PM66 °FScattered showers. Broken clouds.8 mph56%30.07 "HgN/A
4:20 PM66 °FSprinkles. Broken clouds.7 mph56%30.07 "HgN/A
3:50 PM66 °FBroken clouds.8 mph60%30.07 "HgN/A
3:20 PM68 °FScattered showers. Broken clouds.9 mph56%30.07 "HgN/A
2:50 PM66 °FPartly sunny.8 mph60%30.07 "HgN/A
2:20 PM66 °FBroken clouds.8 mph60%30.07 "HgN/A
1:50 PM66 °FScattered clouds.6 mph60%30.07 "HgN/A
1:20 PM64 °FScattered clouds.8 mph64%30.07 "HgN/A
12:50 PM63 °FBroken clouds.8 mph68%30.07 "HgN/A
12:20 PM63 °FBroken clouds.7 mph68%30.07 "HgN/A
11:50 AM61 °FPartly sunny.8 mph68%30.07 "HgN/A
11:20 AM63 °FPartly sunny.7 mph68%30.07 "HgN/A
10:50 AM61 °FPartly sunny.6 mph72%30.07 "HgN/A
10:20 AM59 °FBroken clouds.7 mph77%30.09 "HgN/A
9:50 AM59 °FPartly sunny.6 mph77%30.09 "HgN/A
9:20 AM59 °FPartly sunny.5 mph72%30.09 "HgN/A
Weather by CustomWeather, © 2016

See weather overviewHow to use our weather pages